Starlink 11285

operational
NORAD ID: 61578 Int'l Des: 2024-187 Owner: SPXS Country: US Constellation: starlink
LEOCIRCULAR

About Starlink 11285

Description loading...

Live Position

Loading 3D Globe...

Upcoming Passes

Altitude History

Altitude vs Time

uPlot chart will show altitude changes over time

Two-Line Element Set

1 61578U 24187E 25354.23394614 -.00002172 00000-0 -13060-4 0 9998
2 61578 53.1599 327.7397 0001569 89.2077 270.9121 15.69720312 68229
Epoch: Dec 20, 2025 • Age: 13 hours

Current Status

Altitude 359.5 km
Velocity 7.70 km/s
Sub-Earth Point 15.53°N, 125.75°E
Launch Date Oct 18, 2024
Age 1.1 years
Type internet

Technical Details

Classification Payload
Mass 960.00 kg
Dry Mass 910.00 kg
Total Mass 960.00 kg
Length 0.30 m
Diameter 4.10 m
Span 29.00 m
Shape Box + pan
Manufacturer SPXS
Bus Type Starlink V2MD
Phase Status In Orbit
Owner/State SPXS/US

Large Constellations

Loading constellations...